"2010-03-12 00:00:00",1754199,9.87,328.4,4.207,0.702,8.84,102.1005,4.66,6.053,25.76,0,110,13.42,5.43,290.4
"2010-03-12 00:00:30",1754200,9.38,329.2,3.855,0.816,8.51,102.1011,4.661,6.034,25.71,0,110,13.42,5.43,291.2
"2010-03-12 00:01:00",1754201,9.75,327.8,5.225,0.598,8.18,102.1011,4.661,6.01,25.83,0,110,13.41,5.43,289.8
"2010-03-12 00:01:30",1754202,10.26,325.2,4.393,0.899,7.924,102.1005,4.66,5.985,26.36,0,110,13.41,5.43,287.2
"2010-03-12 00:02:00",1754203,10.52,324.1,3.742,0.571,8.03,102.0966,4.65,5.997,26.96,0,110,13.41,5.42,286.1
"2010-03-12 00:02:30",1754204,10.82,324.1,4.662,0.895,7.684,102.0861,4.623,5.972,27.37,0,110,13.41,5.39,286.1
"2010-03-12 00:03:00",1754205,10.85,323.5,4.246,0.793,7.749,102.0808,4.609,5.977,27.64,0,110,13.41,5.38,285.5
"2010-03-12 00:03:30",1754206,9.92,322.8,4.756,0.71,7.994,102.0717,4.586,5.96,27.36,0,110,13.41,5.35,284.8
"2010-03-12 00:04:00",1754207,9.6,324,3.963,0.695,7.953,102.0686,4.578,5.941,26.25,0,110,13.41,5.35,286.0
"2010-03-12 00:04:30",1754208,9.19,322.4,3.409,0.837,8.03,102.0666,4.573,5.924,25.62,0,110,13.41,5.34,284.4
"2010-03-12 00:05:00",1754209,9.98,318.5,6.858,1.234,6.23,102.0669,4.574,5.859,25.91,0,110,13.41,5.34,280.5
"2010-03-12 00:05:30",1754210,9.45,319.4,4.007,1.071,4.458,102.0675,4.576,5.609,26.75,0,110,13.41,5.34,281.4
"2010-03-12 00:06:00",1754211,10.24,323.9,5.609,1.191,6.793,102.063,4.564,5.805,27.19,0,109.9,13.41,5.33,285.9
"2010-03-12 00:06:30",1754212,11.48,329,3.823,0.828,8.87,102.0582,4.552,5.869,27.42,0,110,13.41,5.32,291.0
"2010-03-12 00:07:00",1754213,11.23,329,4.141,0.821,9.22,102.0554,4.545,5.89,27.07,0,110,13.41,5.31,291.0
"2010-03-12 00:07:30",1754214,11.02,327.7,4.565,0.783,8.87,102.0514,4.534,5.911,26.9,0,110,13.41,5.30,289.7
"2010-03-12 00:08:00",1754215,11.29,327.4,5.314,0.718,8.92,102.05,4.531,5.893,26.52,0,110,13.41,5.30,289.4
"2010-03-12 00:08:30",1754216,10.12,327.3,3.688,0.721,8.87,102.048,4.526,5.888,25.94,0,110,13.41,5.29,289.3
"2010-03-12 00:09:00",1754217,11.24,328.1,4.685,0.831,8.42,102.0384,4.501,5.874,25.59,0,110,13.41,5.27,290.1
"2010-03-12 00:09:30",1754218,11.33,330.5,3.853,0.714,8.14,102.0345,4.491,5.876,25.68,0,110,13.41,5.26,292.5
"2010-03-12 00:10:00",1754219,11.73,329.7,2.98,0.981,8.04,102.0339,4.49,5.847,25.78,0,110,13.41,5.26,291.7
"2010-03-12 00:10:30",1754220,11.56,332.2,4.258,0.962,8.21,102.0339,4.49,5.833,25.88,0,110,13.41,5.26,294.2
"2010-03-12 00:11:00",1754221,11.14,330.2,6.073,0.763,8.21,102.0339,4.49,5.854,25.72,0,110,13.41,5.26,292.2
"2010-03-12 00:11:30",1754222,11.86,330.7,3.216,1.271,8.07,102.0339,4.49,5.845,25.35,0,110,13.41,5.26,292.7
"2010-03-12 00:12:00",1754223,12.77,329.3,2.302,0.874,7.821,102.0339,4.49,5.828,25.2,0,110,13.41,5.26,291.3
"2010-03-12 00:12:30",1754224,12.6,330.6,3.439,1.069,8.08,102.0339,4.49,5.831,25.53,0,110,13.41,5.26,292.6
"2010-03-12 00:13:00",1754225,13.42,330.1,3.662,0.699,8.13,102.0339,4.49,5.817,25.66,0,109.9,13.41,5.26,292.1
"2010-03-12 00:13:30",1754226,12.87,329,3.736,0.958,8.11,102.0339,4.49,5.827,25.74,0,110,13.41,5.26,291.0
"2010-03-12 00:14:00",1754227,12.82,330.3,3.865,1.212,8.03,102.0339,4.49,5.809,26.13,0,110,13.41,5.26,292.3
"2010-03-12 00:14:30",1754228,13.3,328.6,3.213,0.829,8.38,102.0339,4.49,5.807,25.74,0,110,13.41,5.26,290.6
"2010-03-12 00:15:00",1754229,12.55,330.7,3.968,0.568,8.46,102.0339,4.49,5.789,25.42,0,110,13.41,5.26,292.7
"2010-03-12 00:15:30",1754230,12.44,332.5,3.487,0.699,8.4,102.0333,4.488,5.801,25.31,0,110,13.41,5.26,294.5
"2010-03-12 00:16:00",1754231,12.72,332.5,3.391,0.69,8.22,102.0263,4.47,5.784,25.24,0,110,13.41,5.24,294.5
"2010-03-12 00:16:30",1754232,13.16,332.9,2.634,0.841,8.35,102.0226,4.461,5.784,25.34,0,110,13.41,5.23,294.9
"2010-03-12 00:17:00",1754233,12.97,333.9,2.212,0.821,8.25,102.0138,4.439,5.781,25.49,0,110,13.41,5.21,295.9
"2010-03-12 00:17:30",1754234,12.52,335.6,3.782,0.797,8.45,102.0119,4.433,5.785,25.48,0,110,13.41,5.20,297.6
"2010-03-12 00:18:00",1754235,12.73,334.9,3.269,0.854,8.33,102.0037,4.413,5.748,25.32,0,110,13.42,5.18,296.9
"2010-03-12 00:18:30",1754236,11.93,333.2,2.956,0.816,8.46,102.0003,4.404,5.754,25.43,0,110,13.42,5.17,295.2
"2010-03-12 00:19:00",1754237,11.42,333.5,2.264,0.846,8.32,102,4.403,5.74,25.42,0,109.9,13.42,5.17,295.5
"2010-03-12 00:19:30",1754238,11.78,334.4,3.693,0.682,8.19,102,4.403,5.742,25.41,0,110,13.42,5.17,296.4
"2010-03-12 00:20:00",1754239,11.85,331.9,4.181,0.697,8.09,102,4.403,5.72,25.47,0,110,13.42,5.17,293.9
"2010-03-12 00:20:30",1754240,11.28,335.8,3.809,0.729,8.29,101.9986,4.4,5.73,25.42,0,110,13.42,5.17,297.8
"2010-03-12 00:21:00",1754241,10.87,332.9,2.919,0.651,8.14,101.9884,4.374,5.713,25.39,0,110,13.42,5.14,294.9
"2010-03-12 00:21:30",1754242,10.62,333.4,4.553,0.818,8.19,101.9813,4.356,5.737,25.46,0,110,13.41,5.12,295.4
"2010-03-12 00:22:00",1754243,10.45,334.1,4.316,0.806,7.869,101.9684,4.322,5.69,25.51,0,110,13.41,5.09,296.1
"2010-03-12 00:22:30",1754244,10.41,332.4,3.384,0.782,8.12,101.9661,4.317,5.696,25.5,0,109.9,13.41,5.08,294.4
"2010-03-12 00:23:00",1754245,10.55,330.2,3.636,0.647,7.933,101.9661,4.317,5.672,25.53,0,110,13.41,5.08,292.2
"2010-03-12 00:23:30",1754246,10.81,332.2,4.117,0.991,7.893,101.9661,4.317,5.676,25.63,0,110,13.41,5.08,294.2
"2010-03-12 00:24:00",1754247,10,335.6,3.506,0.963,7.999,101.9661,4.317,5.685,25.63,0,110,13.41,5.08,297.6
"2010-03-12 00:24:30",1754248,11.53,331.6,5.473,0.678,7.852,101.9661,4.317,5.659,25.69,0,109.9,13.41,5.08,293.6
"2010-03-12 00:25:00",1754249,11.72,331.8,3.658,0.786,7.786,101.9661,4.317,5.651,25.73,0,109.9,13.41,5.08,293.8
"2010-03-12 00:25:30",1754250,10.79,335.4,3.297,0.828,7.87,101.965,4.314,5.647,25.72,0,109.9,13.41,5.08,297.4
"2010-03-12 00:26:00",1754251,11.23,331.8,3.518,0.888,7.687,101.9627,4.308,5.642,25.62,0,109.9,13.42,5.08,293.8
"2010-03-12 00:26:30",1754252,11.4,330.7,3.734,0.755,8.04,101.9579,4.296,5.626,25.48,0,109.9,13.42,5.06,292.7
"2010-03-12 00:27:00",1754253,11.24,331,4.568,0.692,7.961,101.9534,4.284,5.631,25.38,0,109.9,13.42,5.05,293.0
"2010-03-12 00:27:30",1754254,11.43,330,5.141,0.746,7.969,101.952,4.281,5.628,25.33,0,109.9,13.42,5.05,292.0
"2010-03-12 00:28:00",1754255,11.23,329.4,3.559,0.826,7.928,101.9529,4.283,5.613,25.22,0,109.9,13.42,5.05,291.4
"2010-03-12 00:28:30",1754256,11.35,331.1,3.844,0.65,8.27,101.9456,4.264,5.61,25.14,0,109.9,13.42,5.03,293.1
"2010-03-12 00:29:00",1754257,10.96,332.4,2.308,0.78,8.08,101.9391,4.248,5.609,25.18,0,109.9,13.42,5.01,294.4
"2010-03-12 00:29:30",1754258,10.94,334.1,3.671,0.725,8.07,101.9403,4.251,5.62,25.12,0,109.9,13.42,5.02,296.1
"2010-03-12 00:30:00",1754259,11.25,331.7,3.741,0.724,8,101.9406,4.251,5.6,25,0,109.9,13.42,5.02,293.7
"2010-03-12 00:30:30",1754260,11.61,333,3.91,0.72,8.13,101.9414,4.254,5.603,24.94,0,109.9,13.42,5.02,295.0
"2010-03-12 00:31:00",1754261,11.93,332.5,3.719,0.654,7.839,101.9426,4.257,5.583,24.93,0,109.9,13.42,5.02,294.5
"2010-03-12 00:31:30",1754262,12.32,330.2,3.792,0.935,7.974,101.942,4.255,5.601,25.26,0,109.9,13.42,5.02,292.2
"2010-03-12 00:32:00",1754263,12.5,332,3.414,0.84,8.16,101.9466,4.267,5.565,25.09,0,109.9,13.42,5.03,294.0
"2010-03-12 00:32:30",1754264,12.57,329.3,2.98,0.873,8.34,101.9415,4.254,5.563,24.87,0,109.9,13.42,5.02,291.3
"2010-03-12 00:33:00",1754265,12.41,329.7,3.597,0.812,8.36,101.9368,4.242,5.568,25.01,0,109.9,13.42,5.01,291.7
"2010-03-12 00:33:30",1754266,12.23,330.7,3.169,0.682,8.47,101.9303,4.225,5.558,24.73,0,109.9,13.42,4.99,292.7
"2010-03-12 00:34:00",1754267,11.81,330.8,3.662,0.683,8.54,101.9199,4.199,5.548,24.56,0,109.9,13.42,4.97,292.8
"2010-03-12 00:34:30",1754268,11.65,330.2,3.933,0.696,8.71,101.9179,4.194,5.528,24.35,0,109.9,13.42,4.96,292.2
"2010-03-12 00:35:00",1754269,11.29,330.8,2.295,0.845,8.4,101.9228,4.206,5.519,24.29,0,109.9,13.42,4.97,292.8
"2010-03-12 00:35:30",1754270,11.7,329.2,3.86,0.808,8.34,101.9222,4.205,5.526,24.3,0,109.9,13.42,4.97,291.2
"2010-03-12 00:36:00",1754271,11.7,330.7,3.183,0.787,8.37,101.9124,4.179,5.493,24.31,0,109.9,13.43,4.95,292.7
"2010-03-12 00:36:30",1754272,11.66,330,2.947,0.772,8.48,101.9028,4.155,5.489,24.32,0,109.9,13.43,4.92,292.0
"2010-03-12 00:37:00",1754273,12.26,329.9,1.828,0.834,8.23,101.8989,4.145,5.463,24.31,0,109.9,13.42,4.91,291.9
"2010-03-12 00:37:30",1754274,12.51,330.4,3.002,0.767,8.31,101.8978,4.142,5.459,24.26,0,109.9,13.42,4.91,292.4
"2010-03-12 00:38:00",1754275,12.31,327.7,2.931,0.838,8.36,101.8987,4.144,5.454,24.14,0,109.9,13.42,4.91,289.7
"2010-03-12 00:38:30",1754276,12.53,326.3,3.164,0.674,8.56,101.8981,4.143,5.433,24.19,0,109.9,13.42,4.91,288.3
"2010-03-12 00:39:00",1754277,12.59,326,3.637,0.575,8.47,101.8989,4.145,5.42,24.15,0,109.9,13.42,4.91,288.0
"2010-03-12 00:39:30",1754278,12.71,325.6,3.784,0.689,8.48,101.8956,4.137,5.444,24.14,0,109.9,13.42,4.90,287.6
"2010-03-12 00:40:00",1754279,12.95,327.1,3.341,0.603,8.53,101.8893,4.121,5.414,24.12,0,109.9,13.42,4.89,289.1
"2010-03-12 00:40:30",1754280,12.46,329.6,3.092,0.796,8.66,101.8775,4.09,5.389,24.04,0,109.9,13.42,4.86,291.6
"2010-03-12 00:41:00",1754281,12.23,331.6,2.657,0.814,8.44,101.8684,4.067,5.395,24.17,0,109.9,13.42,4.83,293.6
"2010-03-12 00:41:30",1754282,12.59,330.5,3.779,0.877,8.55,101.865,4.059,5.402,24.27,0,109.9,13.42,4.82,292.5
"2010-03-12 00:42:00",1754283,13.18,329.1,3.435,0.833,8.38,101.865,4.059,5.374,24.29,0,109.9,13.42,4.82,291.1
"2010-03-12 00:42:30",1754284,12.96,329.5,3.271,0.828,8.65,101.865,4.059,5.363,24.36,0,109.9,13.42,4.82,291.5
"2010-03-12 00:43:00",1754285,13.08,329,2.999,0.71,8.59,101.865,4.059,5.362,24.32,0,109.9,13.43,4.82,291.0
"2010-03-12 00:43:30",1754286,12.97,329.2,3.953,0.814,8.61,101.865,4.059,5.355,24.32,0,109.9,13.43,4.82,291.2
"2010-03-12 00:44:00",1754287,13.12,329.4,3.134,0.785,8.58,101.8647,4.058,5.343,24.3,0,109.9,13.43,4.82,291.4
"2010-03-12 00:44:30",1754288,13.14,329,3.563,0.781,8.79,101.8585,4.042,5.339,24.26,0,109.9,13.43,4.81,291.0
"2010-03-12 00:45:00",1754289,12.69,328.8,2.955,0.598,8.71,101.8489,4.017,5.326,24.28,0,109.9,13.43,4.78,290.8
"2010-03-12 00:45:30",1754290,12.39,329.7,2.457,0.906,8.58,101.8441,4.005,5.338,24.28,0,109.9,13.43,4.77,291.7
"2010-03-12 00:46:00",1754291,12.62,329.2,3.128,0.762,8.55,101.8317,3.973,5.307,24.39,0,109.9,13.43,4.74,291.2
"2010-03-12 00:46:30",1754292,12.43,331,3.21,0.875,8.75,101.8311,3.972,5.287,24.37,0,109.9,13.43,4.74,293.0
"2010-03-12 00:47:00",1754293,11.72,331.4,3.663,0.589,8.73,101.8311,3.972,5.279,24.32,0,109.9,13.43,4.74,293.4
"2010-03-12 00:47:30",1754294,11.7,331.6,3.923,0.689,8.64,101.8311,3.972,5.28,24.19,0,109.9,13.43,4.74,293.6
"2010-03-12 00:48:00",1754295,12.25,329.6,2.875,0.783,8.49,101.83,3.969,5.248,24.28,0,109.9,13.43,4.74,291.6
"2010-03-12 00:48:30",1754296,11.92,332,3.853,0.93,8.59,101.8221,3.949,5.255,24.56,0,109.9,13.43,4.71,294.0
"2010-03-12 00:49:00",1754297,12.3,330.1,3.935,0.583,8.32,101.8113,3.922,5.238,24.63,0,109.9,13.43,4.69,292.1
"2010-03-12 00:49:30",1754298,12.09,329.9,2.541,0.937,8.38,101.7992,3.89,5.238,24.76,0,109.9,13.43,4.66,291.9
"2010-03-12 00:50:00",1754299,12.26,328.6,3.413,0.745,8.48,101.7972,3.885,5.205,24.75,0,109.9,13.43,4.65,290.6
"2010-03-12 00:50:30",1754300,12.45,328.3,3.204,0.778,8.79,101.7972,3.885,5.21,24.74,0,109.9,13.43,4.65,290.3
"2010-03-12 00:51:00",1754301,12.37,327.1,3.349,0.78,8.7,101.7972,3.885,5.197,24.67,0,109.9,13.43,4.65,289.1
"2010-03-12 00:51:30",1754302,11.85,328,3.181,0.933,8.69,101.7961,3.883,5.203,24.55,0,109.9,13.43,4.65,290.0
"2010-03-12 00:52:00",1754303,11.9,330,3.184,0.839,8.63,101.7786,3.838,5.177,24.56,0,109.9,13.43,4.60,292.0
"2010-03-12 00:52:30",1754304,11.59,331.5,3.092,0.792,8.74,101.7647,3.802,5.178,24.6,0,109.9,13.44,4.57,293.5
"2010-03-12 00:53:00",1754305,11.76,331.1,3.392,0.755,8.61,101.7633,3.799,5.146,24.61,0,109.8,13.44,4.56,293.1
"2010-03-12 00:53:30",1754306,12.03,327.8,3.826,0.732,8.59,101.7633,3.799,5.158,24.58,0,109.9,13.44,4.56,289.8
"2010-03-12 00:54:00",1754307,12.5,328.3,3.593,0.792,8.62,101.7551,3.778,5.127,24.53,0,109.9,13.43,4.54,290.3
"2010-03-12 00:54:30",1754308,12.79,330.1,3.387,0.692,8.67,101.7387,3.736,5.092,24.55,0,109.9,13.43,4.50,292.1
"2010-03-12 00:55:00",1754309,12.7,329.7,2.303,0.832,8.59,101.73,3.714,5.097,24.61,0,109.9,13.43,4.48,291.7
"2010-03-12 00:55:30",1754310,12.3,331.9,3.287,0.848,8.7,101.73,3.714,5.083,24.62,0,109.9,13.43,4.48,293.9
"2010-03-12 00:56:00",1754311,13.01,330.3,3.405,0.898,8.64,101.73,3.714,5.057,24.67,0,109.9,13.43,4.48,292.3
"2010-03-12 00:56:30",1754312,12.67,332,3.27,0.79,8.85,101.7212,3.691,5.056,24.76,0,109.9,13.43,4.46,294.0
"2010-03-12 00:57:00",1754313,12.53,332.9,3.014,0.67,8.69,101.7074,3.656,5.034,24.71,0,109.9,13.43,4.42,294.9
"2010-03-12 00:57:30",1754314,12.71,332.2,3.636,0.63,8.66,101.7027,3.644,5.035,24.8,0,109.9,13.44,4.41,294.2
"2010-03-12 00:58:00",1754315,12.24,333.8,3.764,0.798,8.64,101.705,3.65,5.012,24.88,0,109.9,13.43,4.41,295.8
"2010-03-12 00:58:30",1754316,12.17,333.5,2.368,0.794,8.7,101.711,3.665,4.987,24.87,0,109.8,13.44,4.43,295.5
"2010-03-12 00:59:00",1754317,13.06,332.5,3.152,0.653,8.42,101.7029,3.645,4.976,24.94,0,109.8,13.44,4.41,294.5
"2010-03-12 00:59:30",1754318,12.92,332.1,3.618,0.779,8.6,101.6899,3.611,4.998,25.03,0,109.8,13.45,4.38,294.1
"2010-03-12 01:00:00",1754319,12.6,333.2,3.782,0.759,8.7,101.686,3.602,4.962,24.98,0,109.8,13.45,4.37,295.2
"2010-03-12 01:00:30",1754320,13.08,333,2.898,0.738,8.75,101.6869,3.604,4.92,25.1,0,109.8,13.45,4.37,295.0
"2010-03-12 01:01:00",1754321,13.18,333.1,3.075,0.758,8.57,101.6883,3.607,4.917,25.26,0,109.8,13.45,4.37,295.1
"2010-03-12 01:01:30",1754322,13.28,329.6,3.143,0.921,8.58,101.6782,3.582,4.926,25.3,0,109.8,13.45,4.35,291.6
"2010-03-12 01:02:00",1754323,12.97,331.3,3.435,0.786,8.64,101.6598,3.535,4.875,25.22,0,109.8,13.45,4.30,293.3
"2010-03-12 01:02:30",1754324,13.08,332.5,3.292,0.88,8.89,101.661,3.538,4.856,25.11,0,109.8,13.45,4.30,294.5
"2010-03-12 01:03:00",1754325,12.82,330.8,2.706,0.677,8.76,101.6619,3.54,4.863,24.97,0,109.8,13.45,4.30,292.8
"2010-03-12 01:03:30",1754326,12.49,328.6,4.272,0.694,8.88,101.6613,3.538,4.857,24.92,0,109.8,13.46,4.30,290.6
"2010-03-12 01:04:00",1754327,12.53,329.8,3.817,0.871,8.8,101.648,3.505,4.835,24.84,0,109.8,13.46,4.27,291.8
"2010-03-12 01:04:30",1754328,12.65,331.5,3.914,0.82,8.76,101.6293,3.457,4.802,24.89,0,109.8,13.46,4.22,293.5
"2010-03-12 01:05:00",1754329,13.32,330.9,2.306,0.804,8.37,101.6282,3.454,4.801,25.17,0,109.8,13.46,4.22,292.9
"2010-03-12 01:05:30",1754330,12.7,332.9,3.81,0.834,8.71,101.6282,3.454,4.79,25.44,0,109.8,13.46,4.22,294.9
"2010-03-12 01:06:00",1754331,13.28,331.1,3.119,0.891,8.57,101.6268,3.45,4.766,25.41,0,109.8,13.46,4.21,293.1
"2010-03-12 01:06:30",1754332,12.61,333.1,3.43,0.983,8.92,101.6161,3.423,4.756,25.3,0,109.8,13.46,4.19,295.1
"2010-03-12 01:07:00",1754333,13,333.4,3.772,0.908,8.69,101.609,3.405,4.744,25.15,0,109.8,13.46,4.17,295.4
"2010-03-12 01:07:30",1754334,13.02,332.2,3.411,0.835,8.52,101.5966,3.373,4.73,25.23,0,109.8,13.46,4.14,294.2
"2010-03-12 01:08:00",1754335,12.63,332,3.073,0.848,8.65,101.5943,3.367,4.701,25.17,0,109.8,13.46,4.13,294.0
"2010-03-12 01:08:30",1754336,12.27,333.2,3.061,0.766,8.76,101.5943,3.367,4.71,25.08,0,109.8,13.46,4.13,295.2
"2010-03-12 01:09:00",1754337,12.44,334.8,3.079,0.772,8.59,101.5869,3.349,4.689,25.14,0,109.7,13.46,4.11,296.8
"2010-03-12 01:09:30",1754338,13.11,332.3,2.894,0.863,8.48,101.5751,3.318,4.679,25.34,0,109.8,13.46,4.08,294.3
"2010-03-12 01:10:00",1754339,12.81,333.9,2.489,0.891,8.54,101.5621,3.285,4.648,25.32,0,109.8,13.46,4.05,295.9
"2010-03-12 01:10:30",1754340,13,333.6,3.326,0.744,8.77,101.5604,3.281,4.647,25.31,0,109.8,13.46,4.04,295.6
"2010-03-12 01:11:00",1754341,13.4,333.5,3.59,0.668,8.63,101.5604,3.281,4.639,25.26,0,109.8,13.46,4.04,295.5
"2010-03-12 01:11:30",1754342,13.59,332.7,3.23,0.802,8.56,101.5604,3.281,4.645,25.24,0,109.8,13.46,4.04,294.7
"2010-03-12 01:12:00",1754343,13.52,333.4,2.876,0.795,8.68,101.5578,3.274,4.627,25.22,0,109.8,13.46,4.04,295.4
"2010-03-12 01:12:30",1754344,13.57,334.3,3.833,0.716,8.87,101.5462,3.245,4.603,25.17,0,109.8,13.46,4.01,296.3
"2010-03-12 01:13:00",1754345,13.4,335.5,3.599,0.712,8.77,101.5432,3.237,4.581,25.17,0,109.7,13.46,4.00,297.5
"2010-03-12 01:13:30",1754346,12.73,336.3,3.084,0.865,8.72,101.5398,3.228,4.581,25.21,0,109.8,13.46,3.99,298.3
"2010-03-12 01:14:00",1754347,12.69,334.9,3.104,0.849,8.54,101.5339,3.213,4.572,25.2,0,109.8,13.46,3.98,296.9
"2010-03-12 01:14:30",1754348,12.89,334.7,3.406,0.761,8.66,101.5342,3.214,4.57,25.21,0,109.8,13.46,3.98,296.7
"2010-03-12 01:15:00",1754349,13.87,332.3,3.197,0.702,8.42,101.5371,3.221,4.564,25.15,0,109.7,13.46,3.98,294.3
"2010-03-12 01:15:30",1754350,13.2,334,3.369,0.748,8.58,101.5374,3.222,4.553,25.1,0,109.8,13.46,3.99,296.0
"2010-03-12 01:16:00",1754351,13.12,332.5,3.051,0.95,8.62,101.5349,3.216,4.543,25.13,0,109.7,13.47,3.98,294.5
"2010-03-12 01:16:30",1754352,13.35,331.5,3.341,0.668,8.85,101.5259,3.193,4.527,25.03,0,109.8,13.47,3.96,293.5
"2010-03-12 01:17:00",1754353,13.23,333.9,3.187,0.628,8.76,101.5111,3.155,4.522,24.94,0,109.8,13.47,3.92,295.9
"2010-03-12 01:17:30",1754354,13.3,336.3,3.379,0.936,8.66,101.5112,3.155,4.522,25.03,0,109.8,13.47,3.92,298.3
"2010-03-12 01:18:00",1754355,12.71,337.4,3.773,0.7,8.62,101.5106,3.154,4.492,25.06,0,109.7,13.47,3.92,299.4
"2010-03-12 01:18:30",1754356,12.29,337,2.199,0.814,8.72,101.5109,3.155,4.487,25,0,109.7,13.47,3.92,299.0
"2010-03-12 01:19:00",1754357,12.93,334.9,4.318,0.768,8.61,101.5138,3.162,4.483,24.91,0,109.7,13.47,3.93,296.9
"2010-03-12 01:19:30",1754358,12.76,336.8,3.925,0.788,8.7,101.5189,3.175,4.483,24.85,0,109.7,13.47,3.94,298.8
"2010-03-12 01:20:00",1754359,13.1,335.5,4.072,0.97,8.45,101.5181,3.173,4.458,24.85,0,109.7,13.47,3.94,297.5
"2010-03-12 01:20:30",1754360,13.94,332.7,2.389,0.831,8.4,101.5144,3.164,4.452,24.87,0,109.7,13.47,3.93,294.7
"2010-03-12 01:21:00",1754361,14.41,332.5,4.247,0.759,8.48,101.5099,3.152,4.447,24.84,0,109.7,13.47,3.92,294.5
"2010-03-12 01:21:30",1754362,14.17,329,4.546,0.775,8.59,101.4992,3.125,4.458,24.8,0,109.7,13.47,3.89,291.0
"2010-03-12 01:22:00",1754363,14.65,330.5,3.188,0.924,8.65,101.4887,3.098,4.443,24.6,0,109.7,13.47,3.86,292.5
"2010-03-12 01:22:30",1754364,15.01,330.7,3.446,0.937,8.84,101.4876,3.095,4.441,24.5,0,109.7,13.47,3.86,292.7
"2010-03-12 01:23:00",1754365,14.61,332,4.167,0.495,8.97,101.4873,3.094,4.426,24.52,0,109.7,13.47,3.86,294.0
"2010-03-12 01:23:30",1754366,14.25,334.4,3.163,0.797,8.98,101.4902,3.102,4.421,24.59,0,109.7,13.47,3.86,296.4
"2010-03-12 01:24:00",1754367,13.98,336.4,2.823,0.877,8.97,101.489,3.099,4.407,24.59,0,109.7,13.48,3.86,298.4
"2010-03-12 01:24:30",1754368,14.42,335.3,2.751,0.91,8.79,101.4899,3.101,4.383,24.7,0,109.7,13.48,3.86,297.3
"2010-03-12 01:25:00",1754369,13.82,335.2,3.565,0.71,8.96,101.4817,3.08,4.394,24.83,0,109.7,13.48,3.84,297.2
"2010-03-12 01:25:30",1754370,14.1,333.8,2.408,0.837,8.67,101.4761,3.066,4.39,24.76,0,109.7,13.48,3.83,295.8
"2010-03-12 01:26:00",1754371,13.93,333.9,3.828,0.799,8.73,101.4648,3.037,4.367,24.71,0,109.7,13.48,3.80,295.9
"2010-03-12 01:26:30",1754372,14.41,334.6,3.471,0.766,8.96,101.4597,3.024,4.369,24.59,0,109.7,13.47,3.79,296.6
"2010-03-12 01:27:00",1754373,14.16,334.9,4.204,0.691,8.85,101.4591,3.022,4.348,24.5,0,109.7,13.47,3.78,296.9
"2010-03-12 01:27:30",1754374,14.37,335.7,3.702,0.776,9.04,101.4591,3.022,4.359,24.44,0,109.7,13.47,3.78,297.7
"2010-03-12 01:28:00",1754375,15.04,336.5,4.707,0.598,8.9,101.4591,3.022,4.341,24.34,0,109.7,13.47,3.78,298.5
"2010-03-12 01:28:30",1754376,14.99,334.7,2.957,0.942,8.83,101.4591,3.022,4.329,24.37,0,109.7,13.47,3.78,296.7
"2010-03-12 01:29:00",1754377,14.24,335,3.968,0.878,9,101.4577,3.019,4.323,24.34,0,109.7,13.47,3.78,297.0
"2010-03-12 01:29:30",1754378,14.26,334.5,3.127,0.737,9.01,101.4512,3.002,4.335,24.16,0,109.7,13.47,3.76,296.5
"2010-03-12 01:30:00",1754379,14.18,335.6,3.874,0.714,8.93,101.4469,2.991,4.296,24.03,0,109.7,13.47,3.75,297.6
"2010-03-12 01:30:30",1754380,14.23,333.9,3.58,0.785,9.01,101.443,2.981,4.293,24.07,0,109.7,13.47,3.74,295.9
"2010-03-12 01:31:00",1754381,13.83,334.9,3.156,0.738,9,101.4379,2.968,4.292,24.05,0,109.7,13.47,3.73,296.9
"2010-03-12 01:31:30",1754382,14,336.4,4.311,0.72,8.9,101.4331,2.956,4.291,24,0,109.7,13.48,3.72,298.4
"2010-03-12 01:32:00",1754383,14.07,336.1,4.187,0.743,8.85,101.4269,2.94,4.28,23.93,0,109.7,13.48,3.70,298.1
"2010-03-12 01:32:30",1754384,14.06,335.6,2.933,0.952,8.98,101.4257,2.937,4.287,23.84,0,109.7,13.48,3.70,297.6
"2010-03-12 01:33:00",1754385,14.08,338,2.602,0.84,8.81,101.4252,2.936,4.281,23.75,0,109.7,13.49,3.70,300.0
"2010-03-12 01:33:30",1754386,14.33,337.3,3.12,0.837,8.76,101.4255,2.937,4.275,23.63,0,109.7,13.49,3.70,299.3
"2010-03-12 01:34:00",1754387,14.1,337.1,3.037,0.784,8.82,101.4252,2.936,4.265,23.54,0,109.7,13.49,3.70,299.1
"2010-03-12 01:34:30",1754388,13.88,336.8,3.223,0.767,8.99,101.4258,2.937,4.274,23.56,0,109.7,13.49,3.70,298.8
"2010-03-12 01:35:00",1754389,14.02,337.3,4.122,0.622,8.84,101.4255,2.937,4.26,23.53,0,109.7,13.49,3.70,299.3
"2010-03-12 01:35:30",1754390,14.43,338.5,3.922,0.974,8.65,101.4275,2.942,4.268,23.61,0,109.7,13.49,3.70,300.5
"2010-03-12 01:36:00",1754391,14.6,338.4,3.114,1.1,8.69,101.4258,2.937,4.276,23.62,0,109.7,13.49,3.70,300.4
"2010-03-12 01:36:30",1754392,14.19,337.5,2.61,0.9,8.88,101.4269,2.94,4.273,23.56,0,109.7,13.49,3.70,299.5
"2010-03-12 01:37:00",1754393,14.85,338.5,3.612,0.547,8.83,101.4283,2.944,4.266,23.49,0,109.7,13.49,3.71,300.5
"2010-03-12 01:37:30",1754394,13.26,338.4,4.135,0.764,8.91,101.4303,2.949,4.287,23.56,0,109.7,13.49,3.71,300.4
"2010-03-12 01:38:00",1754395,13.52,336.7,3.484,0.938,8.8,101.4335,2.957,4.273,23.63,0,109.7,13.49,3.72,298.7
"2010-03-12 01:38:30",1754396,13.57,339.2,3.448,0.788,8.82,101.4335,2.957,4.277,23.56,0,109.7,13.49,3.72,301.2
"2010-03-12 01:39:00",1754397,13.89,336.7,3.239,0.822,8.6,101.4335,2.957,4.272,23.56,0,109.7,13.49,3.72,298.7
"2010-03-12 01:39:30",1754398,14.1,335.8,3.225,1.032,8.56,101.4346,2.96,4.302,23.5,0,109.7,13.49,3.72,297.8
"2010-03-12 01:40:00",1754399,13.64,339,3.953,0.783,8.8,101.4392,2.972,4.27,23.44,0,109.7,13.49,3.73,301.0
"2010-03-12 01:40:30",1754400,13.69,337.9,3.116,0.842,8.78,101.4415,2.978,4.287,23.43,0,109.7,13.49,3.74,299.9
"2010-03-12 01:41:00",1754401,13.55,337,3.709,0.887,8.7,101.4438,2.983,4.279,23.43,0,109.7,13.49,3.75,299.0
"2010-03-12 01:41:30",1754402,14.1,337.2,3.633,1.095,8.65,101.4458,2.988,4.307,23.4,0,109.7,13.49,3.75,299.2
"2010-03-12 01:42:00",1754403,13.62,335.4,3.779,0.925,8.69,101.4475,2.993,4.29,23.32,0,109.7,13.49,3.76,297.4
"2010-03-12 01:42:30",1754404,13.2,337.9,3.04,0.926,8.84,101.4475,2.993,4.291,23.28,0,109.7,13.49,3.76,299.9
"2010-03-12 01:43:00",1754405,13.39,335.1,3.332,0.889,8.74,101.4504,3,4.286,23.22,0,109.7,13.49,3.76,297.1
"2010-03-12 01:43:30",1754406,12.57,337.7,3.851,0.833,8.8,101.4498,2.999,4.301,23.2,0,109.7,13.49,3.76,299.7
"2010-03-12 01:44:00",1754407,13.19,338.8,3.093,0.824,8.55,101.451,3.002,4.29,23.18,0,109.7,13.49,3.76,300.8
"2010-03-12 01:44:30",1754408,13.83,338.8,2.021,0.926,8.61,101.4519,3.004,4.297,23.15,0,109.7,13.49,3.77,300.8
"2010-03-12 01:45:00",1754409,13.4,338.7,3.49,0.701,8.71,101.4524,3.005,4.291,23.12,0,109.7,13.49,3.77,300.7
"2010-03-12 01:45:30",1754410,13.6,338.9,3.057,0.883,8.65,101.4519,3.004,4.31,23.09,0,109.7,13.49,3.77,300.9
"2010-03-12 01:46:00",1754411,13.29,339,2.973,0.869,8.66,101.4524,3.005,4.3,23.1,0,109.7,13.49,3.77,301.0
"2010-03-12 01:46:30",1754412,12.75,338.4,3.536,0.79,8.78,101.4538,3.009,4.3,23.05,0,109.7,13.49,3.77,300.4
"2010-03-12 01:47:00",1754413,13.15,336.6,3.028,0.805,8.49,101.4547,3.011,4.286,23.02,0,109.6,13.49,3.77,298.6
"2010-03-12 01:47:30",1754414,13.33,338.2,3.75,0.668,8.42,101.4533,3.008,4.306,23.03,0,109.7,13.49,3.77,300.2
"2010-03-12 01:48:00",1754415,12.59,337.6,3.043,0.83,8.47,101.4547,3.011,4.297,23.05,0,109.7,13.49,3.77,299.6
"2010-03-12 01:48:30",1754416,12.38,338.8,2.863,0.775,8.62,101.4576,3.018,4.301,23.03,0,109.7,13.49,3.78,300.8
"2010-03-12 01:49:00",1754417,12.96,339.5,3.463,0.706,8.4,101.4587,3.021,4.3,23.03,0,109.6,13.49,3.78,301.5